Content
SEND FEEDBACK

Daily
Averages
Monthly
Summary
United States of America

SELBY, SOUTH DAKOTA


Home > North America > United States > South Dakota
Elevation: 579 meters     Latitude: 45 30N     Longitude: 100 02W

WEATHER
 
SELECT A DAY
Number of Records: 177,218;   Date Range: 1/2/95 - 9/16/14
 
SHARE

PRINT THIS DATA

[ ← Previous Day ]
WEATHER ALMANAC - 31 JANUARY, 2013
[ Next Day → ]
[ °F ]   °C
Weather ElementAverageHighLow
Temperature-22.7 °C-19.4 °C (2:52 pm)-25 °C (7:24 am)
Dewpoint-27.8 °C-25.6 °C (1:52 am)-30.6 °C (8:52 am)
Humidity64.4 %72 % (3:52 am)54 % (1:52 pm)
Barometer1025.4 hPa1030.8 hPa (11:52 am)1016.6 hPa (3:47 am)
Wind Speed28.8 km/h51.8 km/h (7:24 am)
Wind Gust64.9 km/h (7:24 am)
Weather ElementAverage
Visibility12.7 km
Wind DirectionWNW (281.9 °)

Weather ElementTotal
Precipitation---
Heating Degree Days40.6 (Base 18.3)
Averaged from 31 records on 31 January, 2013
WEATHER CONDITIONS BREAKOUT
WIND DIRECTION BREAKOUT
WEATHER BY HOUR - 31 JANUARY, 2013
[ °F ]   °C
Local TimeTemperatureDewpointHumidityBarometerVisibilityWind DirectionWind SpeedGust SpeedPrecipitationEventsConditions
1:52 AM-20.6 °C-25.6 °C65 %1020 hPa16.1 kmNNW (330°)27.8 km/h38.9 km/h0 mmOvercast
2:52 AM-21.1 °C-26.1 °C65 %1020.7 hPa11.3 kmNNW (330°)33.3 km/h50.1 km/h0 mmOvercast
3:47 AM-22 °C-26 °C71 %1016.6 hPa3.2 kmNNW (330°)31.5 km/h42.6 km/h0 mmSnowLight Snow
3:52 AM-21.7 °C-25.6 °C72 %1021.7 hPa3.2 kmNNW (330°)31.5 km/h46.3 km/h0 mmSnowLight Snow
4:23 AM-22 °C-27 °C65 %1016.6 hPa8 kmNNW (340°)37 km/h51.8 km/h0 mmOvercast
4:31 AM-22 °C-27 °C65 %1016.9 hPa12.9 kmNNW (330°)38.9 km/h50.1 km/h0 mmOvercast
4:52 AM-22.2 °C-26.7 °C68 %1022.7 hPa11.3 kmNNW (330°)40.7 km/h57.5 km/h0 mmOvercast
5:18 AM-23 °C-27 °C71 %1018.3 hPa8 kmNW (320°)38.9 km/hHaze
5:52 AM-23.9 °C-28.3 °C68 %1024.4 hPa11.3 kmNW (320°)38.9 km/h55.5 km/h0 mmOvercast
6:36 AM-24 °C-29 °C64 %1019.6 hPa9.7 kmNNW (340°)40.7 km/h51.8 km/hHaze
6:47 AM-24 °C-29 °C64 %1019.6 hPa8 kmNNW (330°)40.7 km/h55.5 km/hHaze
6:52 AM-24.4 °C-29.4 °C64 %1025.1 hPa9.7 kmNNW (330°)50.1 km/h55.5 km/hHaze
7:24 AM-25 °C-29 °C70 %1020.3 hPa4 kmNNW (330°)51.8 km/h64.9 km/hHaze
7:33 AM-25 °C-29 °C70 %1020.7 hPa6.4 kmNNW (330°)48.1 km/h62.9 km/hHaze
7:52 AM-25 °C-30 °C64 %1027.1 hPa14.5 kmNNW (330°)38.9 km/h55.5 km/hScattered Clouds
8:52 AM-25 °C-30.6 °C61 %1028.4 hPa16.1 kmNW (320°)40.7 km/h51.8 km/hClear
9:52 AM-24.4 °C-30 °C61 %1030.1 hPa16.1 kmNNW (330°)24.1 km/h35.2 km/hClear
10:52 AM-22.8 °C-28.9 °C59 %1030.5 hPa16.1 kmNNW (340°)29.6 km/h40.7 km/hClear
11:52 AM-22.2 °C-28.3 °C59 %1030.8 hPa16.1 kmNW (320°)31.5 km/hClear
12:52 PM-21.1 °C-27.2 °C59 %1029.8 hPa16.1 kmNNW (330°)35.2 km/h44.4 km/hClear
1:52 PM-20 °C-27.2 °C54 %1029.8 hPa16.1 kmNNW (330°)27.8 km/h35.2 km/hClear
2:52 PM-19.4 °C-26.7 °C54 %1029.8 hPa16.1 kmNW (310°)20.4 km/hClear
3:52 PM-19.4 °C-26.1 °C56 %1029.5 hPa16.1 kmWNW (300°)22.2 km/hClear
4:52 PM-19.4 °C-26.1 °C56 %1029.1 hPa16.1 kmNW (320°)22.2 km/hClear
5:52 PM-21.1 °C-27.2 °C59 %1029.8 hPa16.1 kmNorth (360°)11.1 km/hClear
6:52 PM-22.8 °C-27.8 °C65 %1030.1 hPa16.1 kmNorth (360°)13 km/hClear
7:52 PM-24.4 °C-28.9 °C67 %1029.8 hPa16.1 kmNNE (20°)9.3 km/hClear
8:52 PM-24.4 °C-28.9 °C67 %1029.5 hPa16.1 kmNorth (10°)5.6 km/hClear
9:52 PM-25 °C-28.9 °C71 %1029.5 hPa16.1 kmCalmMostly Cloudy
10:52 PM-25 °C-28.9 °C71 %1028.4 hPa16.1 kmCalmClear
11:52 PM-22.8 °C-26.7 °C71 %1027.8 hPa16.1 kmSE (140°)9.3 km/hOvercast
Hourly data recorded from KMBG, located 0 kilometers away from Selby, South Dakota







STORIES FROM OUR PARTNERS